Stations météo

réclame
Mon MeteoGroup
Kleine Brogel, Belgique (6479): Température de l'air & dewpoint: 21.01.2020 05:00:00 - 27.01.2020 05:00:00 (CET)Kleine Brogel, Belgique (6479): Vitesse du vent & gusts: 21.01.2020 05:00:00 - 27.01.2020 05:00:00 (CET)Kleine Brogel, Belgique (6479): Direction du vent: 21.01.2020 05:00:00 - 27.01.2020 05:00:00 (CET)Kleine Brogel, Belgique (6479): reduced air pressure: 21.01.2020 05:00:00 - 27.01.2020 05:00:00 (CET)Kleine Brogel, Belgique (6479): visibility: 21.01.2020 05:00:00 - 27.01.2020 05:00:00 (CET)
Date & Time tt [°C] td [°C] ff [km/h] ff [knt] fx [km/h] fx [knt] dd ppp [hPa] vv [km]
27.01.2020 05:00:00 7,5 6,5 18 10 32 18 SSW 1009,7 12
27.01.2020 04:00:00 7,5 6,4 18 10 - - SSW 1010,1 15
27.01.2020 03:00:00 7,8 5,9 18 10 36 19 SSW 1010,7 20
27.01.2020 02:00:00 7,9 5,1 18 10 32 18 SSW 1011,2 20
27.01.2020 01:00:00 7,5 4,4 14 8 - - S 1011,7 20
27.01.2020 00:00:00 7,5 4,4 11 6 25 14 SSW 1012,5 20
26.01.2020 23:00:00 7,4 4,6 11 6 18 10 SSW 1012,7 18
26.01.2020 22:00:00 7,0 4,7 11 6 - - S 1013,3 16
26.01.2020 21:00:00 7,3 4,8 14 8 29 16 SSW 1013,8 19
26.01.2020 20:00:00 8,3 5,1 15 8 25 14 SSW 1014,2 10
26.01.2020 19:00:00 8,4 5,1 14 8 - - SSW 1014,1 20
26.01.2020 18:00:00 8,2 4,8 11 6 25 14 SSW 1014,2 20
26.01.2020 17:00:00 9,0 4,9 14 8 25 14 SSW 1014,2 20
26.01.2020 16:00:00 10,4 5,4 7 4 - - SSW 1014,2 20
26.01.2020 15:00:00 10,6 5,6 11 6 22 12 S 1014,6 20
26.01.2020 14:00:00 9,8 5,3 11 6 22 12 SSW 1015,2 20
26.01.2020 13:00:00 9,2 5,1 11 6 - - SSW 1015,7 15
26.01.2020 12:00:00 7,4 5,0 11 6 22 12 S 1016,2 12
26.01.2020 11:00:00 6,5 5,0 7 4 18 10 SSW 1016,7 11
26.01.2020 10:00:00 3,4 3,4 4 2 - - N 1016,8 9
26.01.2020 09:00:00 2,2 2,2 4 2 4 2 - 1016,7 7
26.01.2020 08:00:00 2,0 2,0 4 2 7 4 N 1017,0 9
26.01.2020 07:00:00 1,6 1,6 4 2 - - N 1017,0 8
26.01.2020 06:00:00 1,5 1,5 4 2 7 4 N 1017,2 7
26.01.2020 05:00:00 0,8 0,8 4 2 7 4 N 1017,6 5
26.01.2020 04:00:00 0,8 0,7 4 2 - - N 1017,8 0,6
26.01.2020 03:00:00 1,0 1,0 7 4 14 8 E 1018,5 0,7
26.01.2020 02:00:00 1,7 1,6 7 4 11 6 E 1018,8 0,4
26.01.2020 01:00:00 2,2 2,2 4 2 - - N 1019,5 0,3
26.01.2020 00:00:00 2,2 2,2 4 2 7 4 N 1019,7 0,3
25.01.2020 23:00:00 2,2 2,2 4 2 7 4 N 1020,2 0,3
25.01.2020 22:00:00 1,8 1,8 4 2 - - N 1020,3 0,3
25.01.2020 21:00:00 1,7 1,7 4 2 7 4 N 1020,7 0,3
25.01.2020 20:00:00 1,9 1,9 4 2 7 4 N 1021,1 0,3
25.01.2020 19:00:00 2,0 1,9 4 2 - - N 1021,2 0,8
25.01.2020 18:00:00 2,0 2,0 4 2 11 6 N 1021,2 2,1
25.01.2020 17:00:00 2,0 1,7 4 2 7 4 N 1020,8 4,9
25.01.2020 16:00:00 1,7 1,3 4 2 - - N 1021,2 5
25.01.2020 15:00:00 1,8 1,3 7 4 11 6 WSW 1021,7 6
25.01.2020 14:00:00 1,7 0,9 7 4 14 8 N 1022,2 6
25.01.2020 13:00:00 1,2 0,7 5 3 - - SW 1023,0 3,3
25.01.2020 12:00:00 0,5 0,2 4 2 7 4 N 1023,3 1,7
25.01.2020 11:00:00 0,4 -0,2 4 2 7 4 N 1023,3 4,7
25.01.2020 10:00:00 0,4 -0,9 4 2 - - - 1023,1 5
25.01.2020 09:00:00 0,2 -0,8 4 2 7 4 N 1023,1 5
25.01.2020 08:00:00 0,1 -1,0 4 2 7 4 N 1022,7 5
25.01.2020 07:00:00 0,1 -1,2 4 2 - - N 1022,7 5
25.01.2020 06:00:00 0,0 -1,2 7 4 11 6 SSW 1022,6 4,9
25.01.2020 05:00:00 0,0 -1,0 7 4 14 8 S 1022,7 5
25.01.2020 04:00:00 0,0 -1,0 4 2 - - N 1023,0 5
25.01.2020 03:00:00 0,2 -0,8 4 2 11 6 N 1023,3 5
25.01.2020 02:00:00 0,4 -0,6 4 2 18 10 N 1023,5 6
25.01.2020 01:00:00 0,6 -0,2 7 4 - - SW 1023,7 7
25.01.2020 00:00:00 0,8 0,0 8 4 11 6 SSW 1023,7 6
24.01.2020 23:00:00 0,8 0,3 4 2 11 6 N 1023,8 6
24.01.2020 22:00:00 0,6 0,4 4 2 - - N 1024,2 4,2
24.01.2020 21:00:00 0,6 0,6 4 2 4 2 N 1024,4 4,0
24.01.2020 20:00:00 0,6 0,3 2 1 7 4 - 1024,2 4,1
24.01.2020 19:00:00 0,6 0,3 4 2 - - N 1023,8 4,8
24.01.2020 18:00:00 0,8 0,4 7 4 14 8 SW 1023,3 5
24.01.2020 17:00:00 - - - - - - - - -
24.01.2020 16:00:00 1,5 0,9 4 2 - - N 1023,5 4,0
24.01.2020 15:00:00 1,7 0,5 4 2 11 6 N 1023,7 4,0
24.01.2020 14:00:00 1,8 0,8 8 4 11 6 SSW 1024,2 5
24.01.2020 13:00:00 1,7 0,6 4 2 - - N 1024,7 5
24.01.2020 12:00:00 1,6 0,5 4 2 11 6 N 1025,0 3,0
24.01.2020 11:00:00 1,2 0,5 4 2 11 6 N 1025,0 3,0
24.01.2020 10:00:00 1,0 0,4 4 2 - - N 1024,9 3,0
24.01.2020 09:00:00 0,8 0,1 7 4 14 8 S 1024,7 3,0
24.01.2020 08:00:00 1,2 0,7 7 4 14 8 S 1024,5 4,0
24.01.2020 07:00:00 1,1 0,6 4 2 - - N 1024,4 5
24.01.2020 06:00:00 1,0 0,6 7 4 11 6 SSW 1024,7 5
24.01.2020 05:00:00 0,8 0,7 4 2 11 6 N 1025,0 5
24.01.2020 04:00:00 0,6 0,5 4 2 - - N 1025,4 1,7
24.01.2020 03:00:00 0,5 0,4 7 4 14 8 SW 1026,0 0,3
24.01.2020 02:00:00 0,8 0,7 4 2 7 4 N 1026,2 0,6
24.01.2020 01:00:00 0,8 0,7 4 2 - - N 1026,5 2,1
24.01.2020 00:00:00 1,0 0,7 4 2 11 6 N 1027,0 2,7
23.01.2020 23:00:00 1,2 0,9 4 2 14 8 N 1027,4 2,5
23.01.2020 22:00:00 1,1 0,9 7 4 - - ESE 1027,7 3,0
23.01.2020 21:00:00 1,2 0,8 11 6 18 10 E 1027,7 3,9
23.01.2020 20:00:00 1,3 0,8 11 6 18 10 E 1028,2 4,9
23.01.2020 19:00:00 1,7 1,1 7 4 - - E 1028,4 6
23.01.2020 18:00:00 2,2 1,3 7 4 14 8 E 1028,9 6
23.01.2020 17:00:00 2,4 1,3 7 4 18 10 E 1029,2 3,5
23.01.2020 16:00:00 2,7 1,7 7 4 - - E 1029,7 4,0
23.01.2020 15:00:00 3,2 1,9 7 4 18 10 E 1030,5 5
23.01.2020 14:00:00 3,4 2,0 13 7 25 14 E 1031,2 6
23.01.2020 13:00:00 3,7 1,7 14 8 - - E 1032,0 10
23.01.2020 12:00:00 3,8 2,3 11 6 14 8 ENE 1032,7 10
23.01.2020 11:00:00 3,2 2,0 7 4 14 8 E 1033,2 5
23.01.2020 10:00:00 3,0 2,1 7 4 - - ENE 1033,5 4,0
23.01.2020 09:00:00 2,5 2,1 4 2 7 4 N 1034,0 3,3
23.01.2020 08:00:00 2,5 2,1 4 2 11 6 N 1034,2 3,0
23.01.2020 07:00:00 2,5 2,2 5 3 - - E 1034,2 2,5
23.01.2020 06:00:00 2,7 2,5 7 4 11 6 N 1034,5 1,9
23.01.2020 05:00:00 2,7 2,7 4 2 7 4 N 1034,9 1,8
23.01.2020 04:00:00 2,7 2,6 4 2 - - N 1035,5 1,7
23.01.2020 03:00:00 2,9 2,8 4 2 7 4 N 1036,2 1,8
23.01.2020 02:00:00 2,7 2,7 4 2 4 2 N 1036,5 0,7
23.01.2020 01:00:00 2,5 2,5 4 2 - - N 1036,9 0,7
23.01.2020 00:00:00 2,7 2,6 4 2 11 6 N 1037,2 0,9
22.01.2020 23:00:00 2,7 2,6 4 2 7 4 N 1037,0 1,0
22.01.2020 22:00:00 2,5 2,5 4 2 - - N 1037,2 0,4
22.01.2020 21:00:00 2,2 2,2 4 2 0 0 N 1037,4 0,5
22.01.2020 20:00:00 2,2 2,2 4 2 4 2 N 1037,2 0,8
22.01.2020 19:00:00 2,0 2,0 4 2 - - N 1037,2 1,1
22.01.2020 18:00:00 2,0 2,0 4 2 7 4 N 1037,0 1,7
22.01.2020 17:00:00 2,1 2,1 4 2 7 4 N 1036,9 1,3
22.01.2020 16:00:00 2,2 2,2 4 2 - - N 1036,9 0,7
22.01.2020 15:00:00 2,0 2,0 4 2 7 4 N 1036,7 0,9
22.01.2020 14:00:00 1,7 1,7 4 2 7 4 - 1037,0 0,8
22.01.2020 13:00:00 0,9 0,9 2 1 - - - 1037,7 1,2
22.01.2020 12:00:00 -0,1 -0,1 4 2 11 6 N 1038,2 1,8
22.01.2020 11:00:00 -0,6 -0,6 4 2 11 6 N 1038,2 1,8
22.01.2020 10:00:00 -1,4 -1,4 4 2 - - - 1038,2 2,0
22.01.2020 09:00:00 -2,0 -2,0 4 2 7 4 N 1038,5 1,3
22.01.2020 08:00:00 -2,4 -2,4 5 3 11 6 WSW 1037,7 0,6
22.01.2020 07:00:00 -2,6 -2,6 5 3 - - SW 1037,7 -
22.01.2020 06:00:00 -2,7 -2,7 4 2 4 2 N 1038,0 0,3
22.01.2020 05:00:00 -2,8 -2,8 4 2 4 2 N 1038,5 0,4
22.01.2020 04:00:00 -3,1 -3,1 4 2 - - N 1038,5 0,6
22.01.2020 03:00:00 -3,3 -3,3 4 2 7 4 N 1039,0 0,3
22.01.2020 02:00:00 -2,8 -2,8 4 2 14 8 N 1039,5 0,5
22.01.2020 01:00:00 -2,5 -2,5 7 4 - - NNW 1040,0 0,5
22.01.2020 00:00:00 -2,8 -2,8 4 2 11 6 N 1039,7 0,3
21.01.2020 23:00:00 -2,6 -2,6 4 2 7 4 N 1039,7 0,3
21.01.2020 22:00:00 -2,4 -2,4 4 2 - - N 1040,5 0,2
21.01.2020 21:00:00 -1,9 -1,9 4 2 7 4 N 1040,4 0,2
21.01.2020 20:00:00 -1,5 -1,5 4 2 7 4 N 1040,5 0,2
21.01.2020 19:00:00 -1,3 -1,2 4 2 - - N 1041,2 0,2
21.01.2020 18:00:00 -1,1 -1,1 4 2 7 4 N 1041,2 0,2
21.01.2020 17:00:00 -0,3 -0,3 4 2 4 2 N 1041,4 0,1
21.01.2020 16:00:00 0,4 0,3 4 2 - - N 1041,7 2,5
21.01.2020 15:00:00 0,9 0,9 4 2 7 4 N 1041,7 2,8
21.01.2020 14:00:00 0,0 0,0 4 2 7 4 N 1042,4 2,0
21.01.2020 13:00:00 -0,8 -0,8 4 2 - - N 1043,0 0,5
21.01.2020 12:00:00 -1,8 -1,8 4 2 7 4 N 1044,0 0,3
21.01.2020 11:00:00 -2,9 -2,9 4 2 4 2 N 1044,2 0,1
21.01.2020 10:00:00 -3,1 -3,1 4 2 - - N 1043,9 0,3
21.01.2020 09:00:00 -3,4 -3,4 4 2 4 2 N 1043,5 0,1
21.01.2020 08:00:00 -3,0 -3,0 4 2 4 2 N 1043,5 -
21.01.2020 07:00:00 -2,7 -2,7 4 2 - - N 1043,7 -
21.01.2020 06:00:00 -2,0 -2,0 4 2 7 4 N 1043,7 0,3
21.01.2020 05:00:00 -1,5 -1,5 4 2 4 2 N 1044,0 0,2

tt = Température de l'air
td = dewpoint
ff = Vitesse du vent
fx = gusts
dd = Direction du vent
ppp = reduced air pressure
vv = visibility

stations d'obs. à proximité